Live-Position
3D-Globus wird geladen...
Über Starlink 5602
Group: 3 satellites
Beschreibung wird geladen...
Nächste Überflüge
Passes for default location (London). Set your location on the main map for personalized predictions.
Höhenverlauf
Loading altitude history...
Y: Altitude (km)
No altitude history available
Zweizeiliger Elementsatz
1 55743U 23028C 26133.23064830 .00000586 00000-0 56933-4 0 9999
2 55743 69.9997 81.8946 0003015 271.5679 88.5135 14.98322257175700
Epoch: 13. Mai 2026 •
Age: 16 hours
Aktueller Status
Höhe 575.1 km
Geschwindigkeit 7.58 km/s
Subsatellitenpunkt 22.22°N,
107.9°W
Startdatum 3. März 2023
Alter 3.1 years
Typ internet
Startgruppe
Falcon 9 •
Group 2-7 •
45 satellites
Starlink 5592
55741
Starlink 5594 55742
Starlink 5601 55744
Starlink 5579 55746
Starlink 5539 55747
Starlink 5580 55748
Starlink 5573 55750
Starlink 5577 55751
Starlink 5613 55752
Starlink 5617 55753
Starlink 5612 55754
Starlink 5614 55756
Starlink 5544 55757
Starlink 5072 55758
Starlink 5532 55760
Starlink 5611 55761
Starlink 5603 55762
Starlink 5593 55763
Starlink 5499 55764
Starlink 5595 55765
...and 24 more
Technische Details
Klassifizierung Payload
Masse 305.00 kg
Trockenmasse 290.00 kg
Gesamtmasse 305.00 kg
Länge 0.20 m
Durchmesser 2.80 m
Spannweite 9.00 m
Form Box + pan
Hersteller SPXS
Bus-Typ Starlink
Phasenstatus In Orbit
Besitzer/Staat SPXS/US
Most Searched
Loading...